[[{"header":{"parameterUnit":"m.s-1","parameterCategory":1,"la1":30.2992,"la2":30.254,"lo1":-89.0895,"lo2":-89.0443,"dy":0.0025,"dx":0.0025,"nx":19,"ny":19,"refTime":"2026-05-16T21:00:00:Z","depth":0,"parameterNumber":2,"parameterNumberName":"U-component_of_WINDS"},"data":[0,0,0,-2.0249,-2.0251,-2.0358,-2.0358,-2.0488,-2.0489,0,0,0,0,0,0,0,0,0,0,0,-2.0211,-2.0212,-2.0248,-2.0251,-2.0358,-2.0358,-2.0488,-2.0489,0,0,0,0,0,0,0,0,0,0,0,-2.0211,-2.0211,-2.0212,-2.0251,-2.0358,-2.0358,-2.0488,-2.041,0,0,0,0,0,0,0,0,0,0,-2.0307,-2.0266,-2.0211,-2.0212,-2.0252,-2.0357,-2.0358,-2.0406,-2.0415,-2.0436,0,-2.0452,0,-2.0473,-2.0497,-2.0498,0,0,0,-2.0256,-2.0259,-2.0293,-2.0212,-2.0253,-2.0357,-2.0311,-2.0411,-2.0421,-2.0447,-2.0454,-2.0459,-2.0475,-2.0498,-2.0499,-2.0603,-2.0603,0,0,-2.025,-2.0227,-2.0287,-2.0299,-2.028,-2.0307,-2.0314,-2.0417,-2.0423,-2.0455,-2.0462,-2.0477,-2.0499,-2.05,-2.0603,-2.0603,0,0,0,-2.023,-2.0223,-2.0255,-2.0294,-2.0313,-2.031,-2.0318,-2.0419,-2.0431,-2.0464,-2.0478,-2.05,-2.0501,-2.0603,-2.0603,-2.0593,0,0,0,-2.0226,-2.0211,-2.0252,-2.0239,-2.0311,-2.0367,-2.0317,-2.0424,-2.0436,-2.0478,-2.05,-2.0502,-2.0602,-2.0603,-2.0592,-2.0592,0,0,0,-2.0206,-2.0209,-2.0222,-2.0238,-2.0283,-2.0366,-2.0384,-2.0427,-2.0445,-2.0498,-2.0503,-2.0602,-2.0603,-2.0592,-2.0591,-2.0612,0,0,0,-2.0178,-2.0212,-2.0221,-2.0265,-2.0282,-2.0358,-2.0384,-2.0443,-2.0487,-2.05,-2.0603,-2.0603,-2.0592,-2.0591,-2.0612,-2.0625,-2.0628,0,0,-2.0208,-2.0215,-2.0242,-2.0254,-2.0323,-2.0344,-2.0413,-2.0475,-2.0502,-2.0568,-2.0571,-2.0593,-2.0591,-2.0612,-2.0657,-2.066,0,0,0,-2.0244,-2.0263,-2.0287,-2.0327,-2.0375,-2.0417,-2.0472,-2.0495,-2.0553,-2.0531,-2.0607,-2.0607,-2.062,-2.0628,-2.063,-2.0643,-2.0606,-2.0606,-2.0606,-2.0253,-2.0285,-2.0333,-2.0378,-2.0417,-2.0474,-2.0509,-2.0551,-2.0572,-2.059,-2.0609,-2.0632,-2.064,-2.0642,-2.0655,-2.0619,-2.0619,-2.0619,-2.0619,-2.0299,-2.0332,-2.036,-2.0416,-2.045,-2.0499,-2.0556,-2.0569,-2.062,-2.062,-2.0633,-2.0629,-2.0644,-2.0657,-2.0619,-2.0619,-2.0619,-2.0619,-2.0619,-2.0308,-2.0329,-2.0357,-2.0419,-2.0465,-2.051,-2.0558,-2.0588,-2.0617,-2.063,-2.0655,-2.0655,-2.0659,-2.064,-2.064,-2.064,-2.064,-2.064,-2.064,-2.0306,-2.0337,-2.0373,-2.0428,-2.0458,-2.0502,-2.0561,-2.0593,-2.0636,-2.0654,-2.0654,-2.0674,-2.0639,-2.0629,-2.0642,-2.0642,-2.0641,-2.0641,-2.0641,-2.0339,-2.0337,-2.0391,-2.0422,-2.049,-2.0533,-2.0571,-2.0633,-2.0664,-2.0687,-2.0705,-2.0674,-2.0684,-2.0682,-2.0674,-2.0698,-2.0698,-2.0698,-2.0698,-2.0346,-2.0354,-2.0417,-2.0464,-2.0514,-2.0554,-2.0617,-2.0664,-2.0712,-2.0734,-2.0735,-2.0728,-2.0725,-2.0736,-2.0733,-2.0726,-2.0763,-2.0763,-2.0763,-2.0368,-2.0382,-2.0429,-2.0474,-2.053,-2.0578,-2.0638,-2.0693,-2.0748,-2.0766,-2.0752,-2.0749,-2.0737,-2.0732,-2.0747,-2.0743,-2.073,0,0]},{"header":{"parameterUnit":"m.s-1","parameterCategory":1,"la1":30.2992,"la2":30.254,"lo1":-89.0895,"lo2":-89.0443,"dy":0.0025,"dx":0.0025,"nx":19,"ny":19,"refTime":"2026-05-16T21:00:00:Z","depth":0,"parameterNumber":3,"parameterNumberName":"V-component_of_WINDS"},"data":[0,0,0,4.8019,4.8019,4.8031,4.8031,4.8052,4.8052,0,0,0,0,0,0,0,0,0,0,0,4.8018,4.8018,4.8019,4.8019,4.8031,4.8031,4.8052,4.8052,0,0,0,0,0,0,0,0,0,0,0,4.8018,4.8018,4.8018,4.8019,4.8031,4.8031,4.8052,4.8041,0,0,0,0,0,0,0,0,0,0,4.8028,4.803,4.8018,4.8018,4.8019,4.8031,4.8031,4.804,4.8041,4.8048,0,4.8056,0,4.8054,4.8054,4.8054,0,0,0,4.8017,4.8029,4.803,4.8018,4.8019,4.8031,4.8025,4.8041,4.8042,4.805,4.8056,4.8056,4.8055,4.8054,4.8054,4.8104,4.8104,0,0,4.8016,4.8022,4.8029,4.8031,4.803,4.8025,4.8025,4.8042,4.8048,4.8056,4.8057,4.8055,4.8054,4.8054,4.8103,4.8104,0,0,0,4.8016,4.8021,4.8021,4.803,4.8032,4.8025,4.8026,4.8047,4.8047,4.8057,4.8055,4.8054,4.8054,4.8103,4.8103,4.8126,0,0,0,4.8015,4.8021,4.8021,4.8025,4.8032,4.804,4.8031,4.8046,4.8047,4.8055,4.8054,4.8055,4.8102,4.8103,4.8125,4.8136,0,0,0,4.8016,4.8021,4.8024,4.8025,4.8031,4.8039,4.804,4.8046,4.8046,4.8054,4.8055,4.8102,4.8103,4.8123,4.8134,4.8151,0,0,0,4.8019,4.8043,4.8024,4.8051,4.8031,4.8054,4.804,4.8056,4.8065,4.8054,4.8103,4.8103,4.8123,4.8132,4.8149,4.8166,4.8174,0,0,4.8053,4.8048,4.8063,4.8047,4.8074,4.8051,4.8082,4.8085,4.808,4.8096,4.8097,4.8125,4.8133,4.815,4.8214,4.822,0,0,0,4.8076,4.8087,4.8093,4.8103,4.8106,4.811,4.8107,4.8108,4.8122,4.809,4.8136,4.8141,4.815,4.8158,4.8163,4.8171,4.8107,4.8107,4.8107,4.8132,4.8125,4.8151,4.8146,4.8155,4.8153,4.816,4.8162,4.8151,4.8163,4.8167,4.8207,4.8216,4.822,4.8228,4.8176,4.8176,4.8176,4.8176,4.8181,4.8196,4.8184,4.8204,4.8197,4.8214,4.8213,4.8206,4.822,4.8202,4.8211,4.8192,4.8227,4.8234,4.8177,4.8177,4.8177,4.8177,4.8177,4.8217,4.8223,4.8225,4.8239,4.825,4.8245,4.826,4.8253,4.8246,4.8254,4.8259,4.8258,4.8257,4.8257,4.8257,4.8257,4.8257,4.8258,4.8258,4.8253,4.8255,4.8268,4.8275,4.8281,4.8288,4.8287,4.8292,4.8296,4.829,4.829,4.8279,4.8231,4.822,4.826,4.8259,4.8259,4.8259,4.8259,4.8305,4.8293,4.8314,4.832,4.8328,4.834,4.8332,4.8344,4.8347,4.8355,4.8343,4.8309,4.8302,4.8298,4.8288,4.8344,4.8344,4.8344,4.8344,4.8336,4.8332,4.8353,4.8363,4.8372,4.8367,4.8392,4.8392,4.839,4.8392,4.8383,4.8369,4.8365,4.8361,4.8356,4.8346,4.8415,4.8416,4.8416,4.8367,4.8365,4.8387,4.8386,4.8392,4.8397,4.842,4.8432,4.8427,4.8418,4.8393,4.839,4.8368,4.8361,4.8351,4.8342,4.8325,0,0]}]]